TimeCDT,TemperatureF,Dew PointF,Humidity,Sea Level PressureIn,VisibilityMPH,Wind Direction,Wind SpeedMPH,Gust SpeedMPH,PrecipitationIn,Events,Conditions,WindDirDegrees,DateUTC
12:12 AM,64.4,60.8,88,30.14,10.0,NE,3.5,-,N/A,,Mostly Cloudy,40,2011-10-09 05:12:00
12:33 AM,64.4,60.8,88,30.15,10.0,NNE,3.5,-,N/A,,Mostly Cloudy,30,2011-10-09 05:33:00
12:53 AM,62.6,60.8,94,30.16,10.0,North,4.6,-,N/A,,Mostly Cloudy,360,2011-10-09 05:53:00
1:13 AM,62.6,60.8,94,30.17,10.0,North,5.8,-,N/A,,Overcast,360,2011-10-09 06:13:00
1:33 AM,62.6,57.2,82,30.16,10.0,NNE,5.8,-,N/A,,Overcast,20,2011-10-09 06:33:00
1:53 AM,60.8,57.2,88,30.17,7.0,NNE,3.5,-,N/A,Rain,Light Rain,30,2011-10-09 06:53:00
2:33 AM,60.8,57.2,88,30.18,10.0,NE,4.6,-,0.03,,Overcast,50,2011-10-09 07:33:00
2:45 AM,60.8,59.0,94,30.17,10.0,NNE,3.5,-,0.03,Rain,Rain,30,2011-10-09 07:45:00
2:53 AM,60.8,57.2,88,30.17,10.0,NE,4.6,-,N/A,,Light Drizzle,40,2011-10-09 07:53:00
3:13 AM,60.8,59.0,94,30.18,7.0,North,3.5,-,0.02,,Drizzle,360,2011-10-09 08:13:00
3:33 AM,59.0,59.0,100,30.17,10.0,NE,5.8,-,0.12,Rain,Light Rain,40,2011-10-09 08:33:00
3:45 AM,59.0,59.0,100,30.18,10.0,North,4.6,-,0.13,,Overcast,360,2011-10-09 08:45:00
3:53 AM,59.0,59.0,100,30.17,10.0,NNE,4.6,-,N/A,,Overcast,30,2011-10-09 08:53:00
4:13 AM,59.0,57.2,94,30.17,10.0,NE,4.6,-,N/A,,Overcast,50,2011-10-09 09:13:00
4:33 AM,59.0,59.0,100,30.18,10.0,NNE,4.6,-,N/A,Rain,Light Rain,30,2011-10-09 09:33:00
4:53 AM,59.0,57.2,94,30.18,10.0,North,5.8,-,N/A,,Overcast,10,2011-10-09 09:53:00
5:13 AM,59.0,57.2,94,30.18,10.0,NE,6.9,-,N/A,,Overcast,40,2011-10-09 10:13:00
5:33 AM,59.0,57.2,94,30.19,10.0,North,5.8,-,N/A,,Mostly Cloudy,10,2011-10-09 10:33:00
5:53 AM,59.0,57.2,94,30.19,10.0,NE,5.8,-,N/A,,Mostly Cloudy,50,2011-10-09 10:53:00
6:13 AM,59.0,57.2,94,30.19,10.0,ENE,5.8,-,N/A,,Mostly Cloudy,60,2011-10-09 11:13:00
6:33 AM,59.0,57.2,94,30.19,10.0,ENE,5.8,-,N/A,,Overcast,70,2011-10-09 11:33:00
6:53 AM,57.2,57.2,100,30.19,10.0,ENE,4.6,-,N/A,,Scattered Clouds,60,2011-10-09 11:53:00
7:13 AM,57.2,57.2,100,30.19,10.0,NE,4.6,-,N/A,,Clear,50,2011-10-09 12:13:00
8:13 AM,57.2,57.2,100,30.20,10.0,East,5.8,-,N/A,,Clear,80,2011-10-09 13:13:00
8:33 AM,59.0,57.2,94,30.19,10.0,East,5.8,-,N/A,,Clear,80,2011-10-09 13:33:00
8:53 AM,60.8,59.0,94,30.20,10.0,ENE,5.8,-,N/A,,Clear,70,2011-10-09 13:53:00
9:14 AM,60.8,60.8,100,30.20,10.0,East,6.9,-,N/A,,Clear,80,2011-10-09 14:14:00
9:33 AM,62.6,60.8,94,30.20,10.0,East,8.1,-,N/A,,Clear,80,2011-10-09 14:33:00
9:53 AM,62.6,60.8,94,30.20,10.0,East,6.9,-,N/A,,Clear,90,2011-10-09 14:53:00
10:13 AM,64.4,60.8,88,30.21,10.0,ESE,8.1,-,N/A,,Clear,110,2011-10-09 15:13:00
10:33 AM,64.4,60.8,88,30.21,10.0,East,5.8,-,N/A,,Scattered Clouds,100,2011-10-09 15:33:00
10:53 AM,66.2,60.8,83,30.20,10.0,East,8.1,-,N/A,,Scattered Clouds,100,2011-10-09 15:53:00
11:13 AM,66.2,60.8,83,30.20,10.0,ESE,6.9,-,N/A,,Scattered Clouds,110,2011-10-09 16:13:00
11:33 AM,66.2,60.8,83,30.19,10.0,ESE,5.8,-,N/A,,Clear,120,2011-10-09 16:33:00
11:53 AM,68.0,60.8,78,30.19,10.0,East,6.9,-,N/A,,Scattered Clouds,100,2011-10-09 16:53:00
12:33 PM,71.6,60.8,69,30.18,10.0,East,5.8,-,N/A,,Scattered Clouds,100,2011-10-09 17:33:00
12:53 PM,71.6,59.0,64,30.17,10.0,East,9.2,-,N/A,,Clear,100,2011-10-09 17:53:00
1:14 PM,73.4,59.0,61,30.16,10.0,East,9.2,-,N/A,,Clear,90,2011-10-09 18:14:00
1:33 PM,75.2,57.2,53,30.15,10.0,ESE,8.1,-,N/A,,Clear,110,2011-10-09 18:33:00
1:53 PM,77.0,57.2,50,30.14,10.0,ESE,8.1,-,N/A,,Clear,110,2011-10-09 18:53:00
2:13 PM,78.8,53.6,42,30.13,10.0,SSE,9.2,17.3,N/A,,Clear,150,2011-10-09 19:13:00
2:33 PM,78.8,51.8,39,30.12,10.0,SSE,5.8,-,N/A,,Scattered Clouds,160,2011-10-09 19:33:00
2:53 PM,78.8,48.2,34,30.11,10.0,SE,11.5,16.1,N/A,,Scattered Clouds,140,2011-10-09 19:53:00
3:13 PM,80.6,48.2,32,30.11,10.0,SSE,10.4,16.1,N/A,,Scattered Clouds,150,2011-10-09 20:13:00
3:33 PM,80.6,48.2,32,30.10,10.0,SSE,8.1,-,N/A,,Scattered Clouds,150,2011-10-09 20:33:00
3:52 PM,78.8,50.0,36,30.10,10.0,SE,10.4,-,N/A,,Scattered Clouds,140,2011-10-09 20:52:00
4:13 PM,78.8,50.0,36,30.10,10.0,SSE,4.6,-,N/A,,Scattered Clouds,160,2011-10-09 21:13:00
4:33 PM,78.8,50.0,36,30.10,10.0,SSE,6.9,-,N/A,,Clear,160,2011-10-09 21:33:00
4:53 PM,77.0,51.8,41,30.10,10.0,SSE,9.2,-,N/A,,Clear,150,2011-10-09 21:53:00
5:13 PM,77.0,51.8,41,30.10,10.0,SSE,5.8,-,N/A,,Clear,150,2011-10-09 22:13:00
5:32 PM,77.0,50.0,39,30.09,10.0,SE,10.4,16.1,N/A,,Clear,140,2011-10-09 22:32:00
5:53 PM,75.2,50.0,41,30.10,10.0,SSE,6.9,-,N/A,,Clear,150,2011-10-09 22:53:00
6:13 PM,75.2,50.0,41,30.10,10.0,SSE,6.9,-,N/A,,Clear,150,2011-10-09 23:13:00
6:33 PM,73.4,50.0,44,30.09,10.0,SE,5.8,-,N/A,,Clear,140,2011-10-09 23:33:00
6:53 PM,69.8,50.0,49,30.09,10.0,SE,5.8,-,N/A,,Clear,140,2011-10-09 23:53:00
7:13 PM,68.0,50.0,52,30.09,10.0,SE,5.8,-,N/A,,Clear,140,2011-10-10 00:13:00
7:32 PM,66.2,50.0,56,30.09,10.0,SE,6.9,-,N/A,,Clear,140,2011-10-10 00:32:00
7:53 PM,66.2,51.8,60,30.10,10.0,SE,8.1,-,N/A,,Clear,140,2011-10-10 00:53:00
8:13 PM,69.8,50.0,49,30.10,10.0,SE,9.2,-,N/A,,Clear,130,2011-10-10 01:13:00
8:33 PM,69.8,50.0,49,30.10,10.0,SE,8.1,-,N/A,,Clear,140,2011-10-10 01:33:00
8:53 PM,68.0,50.0,52,30.10,10.0,SE,8.1,-,N/A,,Clear,140,2011-10-10 01:53:00
9:33 PM,68.0,50.0,52,30.10,10.0,SSE,6.9,-,N/A,,Clear,150,2011-10-10 02:33:00
9:53 PM,68.0,50.0,52,30.10,10.0,SE,9.2,-,N/A,,Clear,140,2011-10-10 02:53:00
10:13 PM,66.2,50.0,56,30.10,10.0,SE,9.2,-,N/A,,Clear,140,2011-10-10 03:13:00
10:33 PM,66.2,50.0,56,30.10,10.0,SE,9.2,-,N/A,,Clear,140,2011-10-10 03:33:00
10:53 PM,66.2,50.0,56,30.10,10.0,SE,10.4,-,N/A,,Clear,140,2011-10-10 03:53:00
11:13 PM,66.2,50.0,56,30.09,10.0,SE,9.2,-,N/A,,Clear,140,2011-10-10 04:13:00
11:33 PM,66.2,50.0,56,30.09,10.0,SE,8.1,-,N/A,,Clear,140,2011-10-10 04:33:00
11:53 PM,66.2,50.0,56,30.09,10.0,SE,8.1,-,N/A,,Clear,140,2011-10-10 04:53:00